Weather History for Angeles / Pampanga, Philippines

Change the Weather History Date:

Saturday, November 17, 2012

  Actual Average (RPLB) Record (RPLB)
Temperature  
Mean Temperature 79 °F -  
Max Temperature 89 °F 87 °F 93 °F (2003)
Min Temperature 69 °F 75 °F 68 °F (2001)
Cooling Degree Days 14    
Growing Degree Days 29 (Base 50)    
Moisture  
Dew Point 69 °F    
Average Humidity 72    
Maximum Humidity 94    
Minimum Humidity 46    
Precipitation  
Precipitation 0.00 in - - ()
Sea Level Pressure  
Sea Level Pressure 29.91 in    
Wind  
Wind Speed 4 mph ()    
Max Wind Speed 8 mph    
Max Gust Speed 26 mph    
Visibility 6.2 miles    
Events      
Averages and records for this station are not official NWS values.
T = Trace of Precipitation, MM = Missing Value Source: Averaged Metar Reports

Daily Weather History Graph

Daily Weather History Graph

Search for Another Location

Airport:

Trip Planner

Search our weather history database for the weather conditions in past years. The results will help you decide how hot, cold, wet, or windy it might be!

Date:

Astronomy

Nov. 17, 2012 Rise Set
Actual Time 6:00 AM PHT 5:24 PM PHT
Civil Twilight 5:37 AM PHT 5:47 PM PHT
Nautical Twilight 5:11 AM PHT 6:13 PM PHT
Astronomical Twilight 4:45 AM PHT 6:39 PM PHT
Moon 9:12 AM PHT (11/17) 8:55 PM PHT (11/17)
Length of Visible Light 12h 09m
Length of Day
11h 24m
Waxing Crescent, 15% of the Moon is Illuminated
Nov 17
Waxing Crescent
Nov 20
First Quarter
Nov 28
Full
Dec 6
Last Quarter
Dec 13
New

Hourly Weather History & Observations

Time (PHT) Temp. Heat Index Dew Point Humidity Pressure Visibility Wind Dir Wind Speed Gust Speed Precip Events Conditions
12:00 AM 75.2 °F - 69.8 °F 83% 29.98 in 6.2 mi West 5.8 mph - N/A   Mostly Cloudy
1:00 AM 73.4 °F - 69.8 °F 88% 29.95 in 6.2 mi NW 3.5 mph - N/A   Scattered Clouds
2:00 AM 73.4 °F - 69.8 °F 88% 29.92 in 6.2 mi West 5.8 mph - N/A   Scattered Clouds
3:00 AM 71.6 °F - 69.8 °F 94% 29.92 in 6.2 mi West 5.8 mph - N/A   Scattered Clouds
4:00 AM 71.6 °F - 68.0 °F 88% 29.92 in 6.2 mi WNW 4.6 mph - N/A   Scattered Clouds
5:00 AM 71.6 °F - 68.0 °F 88% 29.92 in 6.2 mi WNW 4.6 mph - N/A   Scattered Clouds
6:00 AM 69.8 °F - 68.0 °F 94% 29.92 in 6.2 mi West 5.8 mph - N/A   Mostly Cloudy
7:00 AM 73.4 °F - 69.8 °F 88% 29.95 in 6.2 mi WNW 5.8 mph - N/A   Mostly Cloudy
8:00 AM 78.8 °F - 69.8 °F 74% 29.95 in 6.2 mi Variable 3.5 mph - N/A   Mostly Cloudy
9:00 AM 84.2 °F 88.4 °F 69.8 °F 62% 29.98 in 6.2 mi Variable 3.5 mph - N/A   Scattered Clouds
10:00 AM 86.0 °F 89.4 °F 68.0 °F 55% 29.95 in 6.2 mi Variable 2.3 mph - N/A   Partly Cloudy
11:00 AM 87.8 °F 91.4 °F 68.0 °F 52% 29.95 in 6.2 mi NE 4.6 mph - N/A   Scattered Clouds
12:00 PM 87.8 °F 92.6 °F 69.8 °F 55% 29.92 in 6.2 mi NE 5.8 mph - N/A   Scattered Clouds
1:00 PM 87.8 °F 91.4 °F 68.0 °F 52% 29.89 in 6.2 mi ESE 8.1 mph - N/A   Scattered Clouds
2:00 PM 87.8 °F 89.4 °F 64.4 °F 46% 29.86 in 6.2 mi East 4.6 mph - N/A   Partly Cloudy
3:00 PM 89.6 °F 93.4 °F 68.0 °F 49% 29.80 in 6.2 mi East 4.6 mph - N/A   Mostly Cloudy
4:00 PM 87.8 °F 91.4 °F 68.0 °F 52% 29.83 in 6.2 mi North 4.6 mph - N/A   Mostly Cloudy
5:00 PM 84.2 °F 88.4 °F 69.8 °F 62% 29.86 in 6.2 mi NNE 5.8 mph - N/A   Mostly Cloudy
6:00 PM 80.6 °F 83.9 °F 69.8 °F 70% 29.86 in 6.2 mi Variable 4.6 mph 26.5 mph N/A   Mostly Cloudy
7:00 PM 78.8 °F - 69.8 °F 74% 29.89 in 6.2 mi West 5.8 mph - N/A   Mostly Cloudy
8:00 PM 77.0 °F - 69.8 °F 78% 29.92 in 6.2 mi West 5.8 mph - N/A   Mostly Cloudy
10:00 PM 73.4 °F - 68.0 °F 83% 29.95 in 6.2 mi NW 4.6 mph - N/A   Mostly Cloudy
11:00 PM 75.2 °F - 68.0 °F 78% 29.92 in 6.2 mi WNW 5.8 mph - N/A   Mostly Cloudy